Vorticity
nan nan nan nan nan nan nan nan nan nan nan nan nan nan nan nan nan nan nan nan nan nan nan nan nan nan nan nan nan nan nan nan nan nan nan nan nan nan nan nan nan nan nan nan nan nan nan nan nan
nan 9 5 7 8 7 6 5 6 7 6 5 7 7 1 6 13 16 12 8 7 5 5 6 3 6 6 5 4 5 6 6 6 6 6 6 5 5 4 3 4 4 4 4 5 6 7 7 nan
nan 6 7 10 6 7 8 7 4 2 5 8 4 6 9 6 14 10 9 10 6 5 4 6 6 6 5 5 5 5 6 6 5 5 5 5 5 4 4 4 4 3 4 4 6 7 7 6 nan
nan 9 6 5 9 4 5 7 4 4 5 7 5 8 8 8 11 13 12 6 5 6 6 3 6 5 5 4 5 6 6 6 5 5 5 5 5 5 5 6 6 5 6 6 5 7 7 8 nan
nan 6 10 6 5 6 7 6 3 5 7 8 8 6 5 8 13 14 6 5 5 6 8 5 5 5 6 5 5 5 5 6 5 4 5 6 6 6 6 6 6 7 6 5 6 6 6 8 nan
nan 10 7 5 5 10 9 6 6 8 8 8 9 5 7 12 12 7 6 5 5 6 6 6 5 6 6 5 5 5 5 4 5 5 5 5 5 6 5 5 6 6 6 6 6 6 7 8 nan
nan 9 6 7 3 5 9 10 7 6 9 8 5 6 9 11 7 8 8 6 5 6 6 6 6 5 4 5 4 5 5 4 5 5 5 4 3 5 5 5 5 5 7 7 8 7 7 7 nan
nan 10 5 2 4 3 8 7 6 7 10 6 6 10 12 11 7 6 8 7 6 5 5 6 7 5 4 5 6 5 5 5 4 5 5 5 3 6 5 7 9 5 7 7 8 9 8 9 nan
nan 9 4 3 3 5 6 6 8 8 8 4 7 8 17 13 6 5 6 7 6 6 6 5 6 5 6 6 7 4 5 5 5 5 7 4 6 8 4 5 6 6 6 6 9 10 10 5 nan
nan 8 1 4 4 4 6 10 10 7 3 7 5 10 11 7 5 5 4 6 6 6 6 6 5 5 5 6 7 7 7 6 5 6 5 4 6 2 4 11 7 5 7 6 8 10 9 7 nan
nan 7 6 2 2 6 10 13 6 6 5 11 11 9 6 5 4 5 6 7 7 6 6 7 6 6 5 6 5 8 7 8 9 8 5 5 5 11 10 4 8 11 8 8 9 6 7 4 nan
nan 2 3 2 5 7 7 9 10 6 4 12 20 14 8 4 5 5 6 7 9 8 7 7 7 6 4 6 7 6 6 8 7 8 7 7 8 6 5 10 8 5 11 9 8 5 8 9 nan
nan 3 5 5 8 11 7 5 8 15 12 11 14 12 7 5 6 6 6 7 7 8 8 8 7 6 7 6 5 6 8 6 7 9 7 6 5 5 6 7 5 10 8 4 7 9 8 8 nan
nan 3 8 11 13 12 6 8 11 11 12 14 11 9 9 7 6 5 5 5 7 8 8 7 7 7 6 6 7 5 7 8 8 7 8 7 3 5 4 7 8 9 7 8 7 7 7 8 nan
nan 9 6 9 6 10 14 17 6 5 11 12 11 10 10 7 6 6 6 5 6 6 7 7 7 7 7 8 7 7 8 8 8 8 9 9 8 6 5 5 6 6 8 8 7 7 7 8 nan
nan 9 8 5 7 4 7 12 14 10 10 9 11 10 8 8 7 6 8 8 7 7 7 6 7 8 7 7 6 7 7 6 7 11 13 10 8 6 5 3 8 9 7 8 6 6 6 9 nan
nan 7 12 -1 6 4 7 4 12 9 10 9 10 8 7 6 6 7 8 9 9 8 7 7 7 7 8 7 7 8 6 6 8 9 8 9 10 7 6 9 9 6 6 7 5 5 10 9 nan
nan 12 4 3 4 7 11 8 7 11 8 8 9 8 6 6 8 7 7 10 11 11 9 8 8 9 6 7 8 8 8 9 8 7 8 8 9 8 7 6 8 8 9 7 7 7 8 5 nan
nan 8 7 9 4 7 9 7 9 11 9 9 9 9 6 6 6 8 8 9 10 12 12 11 9 7 7 7 8 8 8 9 9 8 9 9 9 9 8 7 9 7 8 7 8 9 7 8 nan
nan 7 10 6 5 6 6 7 13 12 9 10 10 8 8 7 4 6 8 8 8 9 9 9 13 13 7 8 7 8 11 9 7 10 8 11 10 10 8 9 9 10 9 12 10 7 7 10 nan
nan 8 6 4 10 10 11 11 11 8 8 10 8 10 12 6 7 7 10 9 7 6 8 11 12 11 8 7 10 9 8 7 9 8 9 9 10 10 10 10 9 9 8 11 12 11 10 6 nan
nan 10 6 7 6 9 8 15 11 5 10 13 13 11 9 9 7 7 8 11 9 8 9 9 9 10 10 8 7 6 6 9 12 10 9 10 10 10 11 11 11 10 11 7 8 11 12 9 nan
nan 5 7 11 7 11 10 5 8 8 7 11 17 16 13 12 8 8 8 8 12 12 8 8 9 9 10 10 10 7 9 11 7 9 9 12 13 11 12 12 11 10 9 10 10 8 6 10 nan
nan 6 7 7 11 9 10 9 5 6 10 9 8 15 18 13 9 7 9 8 9 10 6 5 6 9 9 8 8 10 9 8 9 8 10 9 11 12 11 12 12 12 10 9 10 11 6 5 nan
nan 6 7 10 7 9 12 9 7 10 8 6 6 14 19 14 9 8 8 9 8 8 8 6 7 9 8 8 7 7 7 8 7 8 8 9 10 9 9 12 14 14 13 11 11 11 10 7 nan
nan 4 2 6 9 10 4 9 6 8 8 8 11 14 16 13 11 9 9 11 11 8 8 11 11 9 7 7 7 6 7 8 7 8 6 12 9 7 11 13 13 13 14 11 10 11 12 9 nan
nan 13 9 8 7 4 10 11 8 9 9 12 12 14 14 11 10 9 10 10 12 12 10 11 10 7 7 7 7 6 6 6 8 7 10 9 10 9 9 14 14 15 12 10 11 10 10 10 nan
nan 14 13 7 8 12 10 4 16 12 15 12 12 11 11 12 10 10 10 10 10 10 9 9 9 8 7 7 7 6 6 6 8 9 10 9 9 10 12 12 14 15 16 17 12 11 13 11 nan
nan 3 1 4 13 14 12 8 9 5 9 14 16 13 9 10 10 11 11 10 9 9 9 8 7 7 7 7 8 7 6 7 8 9 9 9 10 10 12 12 13 13 13 15 17 18 16 14 nan
nan nan nan nan nan nan nan nan nan nan nan nan nan nan nan nan nan nan nan nan nan nan nan nan nan nan nan nan nan nan nan nan nan nan nan nan nan nan nan nan nan nan nan nan nan nan nan nan nan
CAPE
1233 1229 1075 1352 123 13 9 1 17 3 52 49 109 17 119 499 596 1116 1061 826 846 1201 1507 1680 2826 2910 2570 2794 3177 3319 3723 3501 3162 3412 3005 2684 2641 2628 2328 2273 1968 2131 1971 1778 1810 1571 1439 1691 1281
1225 976 1141 448 85 23 43 25 31 77 68 70 17 2 0 372 868 1151 905 1013 779 1117 1444 1533 2777 2962 2574 2771 3001 3314 3478 3154 3353 3360 3095 2899 2712 2511 2286 2209 2115 1883 1801 1828 1738 1723 1583 1613 1464
1374 259 491 97 53 14 32 59 107 15 0 14 116 153 248 746 708 844 1151 1131 983 1054 1057 1862 2954 2917 2556 2771 3216 3275 3300 3133 3003 2875 2719 2615 2532 2505 2399 2281 2158 1909 1801 1838 1777 1909 1670 1808 1578
389 377 341 116 27 157 131 140 40 0 26 27 240 431 827 507 706 931 1367 1142 1254 1161 1185 2398 3169 2519 2500 2688 3084 3043 3023 2994 2806 2652 2632 2740 2673 2570 2365 2136 1953 1767 1988 2092 1813 1993 1771 1762 1410
307 299 109 89 45 162 231 155 49 43 62 9 62 426 946 1421 945 1295 1476 1389 1424 1433 1580 2058 3241 3193 3035 2873 2927 2981 2959 2964 2729 2770 2883 2965 2986 2535 2317 2286 2075 1927 1932 1924 1850 1728 1801 1453 1289
347 221 109 145 11 135 248 236 186 88 70 44 235 239 1377 1960 1131 1491 1549 1592 1524 1550 1820 2136 3058 3256 2964 2712 2777 2840 2778 2714 2720 2806 2743 2691 2604 2553 2485 2277 2199 2057 1786 1837 1557 1486 1662 1639 1407
249 244 124 96 1 5 147 356 186 127 45 157 267 295 1414 1879 1356 1849 1708 1652 1685 1674 1978 2280 2282 2533 2685 2709 2819 2772 2689 2497 2425 2404 2446 2633 2824 2632 2387 1932 2240 2147 1933 1768 1734 1433 1386 1725 1534
238 213 118 43 11 0 0 234 333 231 214 447 501 368 819 1965 1842 2088 1968 1770 1840 1898 1942 2198 2232 2346 2417 2482 2994 2936 2950 2785 2777 2654 2511 2471 2554 2710 2106 1948 2303 2329 2070 1773 1513 1401 1526 1654 1679
5 191 112 11 0 0 33 9 414 326 328 221 539 779 873 2186 2159 2077 2271 1958 1916 1956 2041 2315 2552 2514 3089 2659 2843 3082 2767 2755 2765 2721 2588 2522 2040 2287 1909 1898 2238 2154 2031 1901 1570 1478 1241 1569 1482
14 148 12 0 0 0 0 24 295 406 427 492 748 1056 1685 2149 2360 2212 2259 2040 1914 1844 1942 2077 2458 2658 2859 2656 2935 2915 2743 2644 2569 2512 2762 2167 1697 1741 1805 2117 2185 2017 1914 2004 1924 1520 1374 1312 860
0 21 0 0 0 0 18 61 175 346 461 465 784 1011 1873 2069 2117 2033 2118 1950 1919 1842 1948 1988 2249 2649 2736 2545 3140 3534 3919 3533 2647 2705 2864 2553 2298 2493 1575 1395 2338 1691 1997 1665 1811 1575 1244 1261 1574
0 0 0 0 0 0 0 74 205 272 378 427 590 1189 1916 1973 1889 1808 1924 1818 2034 2005 1859 1924 2247 2554 2635 3151 2591 2508 2842 3400 2796 2807 2800 3289 2366 2226 1975 1486 2132 2507 1939 1809 1686 1802 1664 1671 1611
0 0 0 0 0 0 0 18 51 164 319 446 676 1450 1799 1836 1825 1790 1904 2031 2522 2076 1831 1893 2394 2620 2600 2736 1695 2058 1939 2161 1919 2047 1875 1634 1714 704 328 1297 1818 2753 2568 1984 2035 1710 1532 1670 1683
0 0 0 0 0 0 18 17 111 670 560 598 1074 1505 1780 1832 1890 2051 2244 2326 2405 2147 1911 2142 2509 2733 2657 2190 2117 1733 1576 2000 1586 1436 1164 1743 1295 297 239 115 1161 3034 2696 1830 1959 2034 1880 1588 1610
0 0 0 0 0 0 4 115 183 642 972 1252 1319 1665 1985 2276 2316 2372 2523 2678 2666 2513 2246 2340 2684 2593 2508 2428 2232 1716 1465 1537 1284 1392 1454 1239 1881 1506 644 112 234 1239 3221 1984 1979 1753 1877 1949 1578
0 0 0 0 0 14 0 152 293 947 1053 1459 1606 1922 2337 2726 2691 2540 2745 2976 2974 2899 2857 2800 2330 2476 2744 2743 2484 2288 2037 2671 2719 2670 1932 1808 1693 1500 1495 1979 2276 1835 1484 1260 1299 1429 1391 1778 1992
0 0 0 0 0 0 0 88 577 1243 1351 1610 1985 2173 2529 2617 2710 2586 2621 2842 2982 3211 3439 3265 3083 2956 3227 3257 2896 2701 2434 2367 1943 2117 1926 1883 2063 1687 2370 1701 1452 2106 1521 1231 1148 1183 1333 1793 1859
0 0 0 0 0 0 0 1 279 1231 1574 1626 1890 2335 2359 2218 2310 2235 2147 1978 2552 3124 3501 3433 3506 3445 3402 3368 3277 2555 2969 2283 2119 1869 1853 2069 2230 2018 2286 3003 2566 2429 2390 1217 1001 1219 1166 1846 1750
0 0 0 0 0 0 0 4 188 998 1680 1680 1846 2407 2432 2132 1625 1358 1482 1956 2313 2644 3214 3328 3431 3791 3625 2932 2618 2598 1846 1611 2469 1822 2279 2181 2066 1981 1986 1804 2117 2377 2563 1916 1199 1514 1534 1020 1252
0 0 0 0 0 0 0 0 44 817 1322 1545 1810 2175 2367 2193 1721 1132 1151 1760 1996 2111 2449 2459 2342 2968 3211 2952 2920 2526 2800 2393 2185 2018 1913 1779 1751 1875 1827 1890 2368 2239 2575 2374 1902 1471 2239 821 879
0 0 0 0 0 0 0 0 0 443 885 1237 1447 1667 2198 2144 1757 1226 1143 1718 1415 1110 1767 1714 2685 3171 3060 2595 2731 2755 2413 2153 1728 1052 709 711 840 909 1175 1305 1489 1567 1886 1712 2291 1960 1665 1362 832
0 0 0 0 0 0 0 0 0 0 146 490 930 1429 1737 1949 1453 1252 643 1240 1319 923 1204 1925 1717 2384 2783 2884 2783 2658 2077 1037 728 669 701 909 786 736 725 955 1115 1261 1286 932 674 758 956 1522 1679
0 0 0 0 0 0 0 0 0 2 0 372 559 912 1326 1698 1570 1154 1057 425 690 668 968 905 1526 2255 2647 2673 2444 1619 744 603 783 780 843 897 868 893 772 779 846 1139 1725 1241 974 1004 485 886 1789
0 0 0 0 0 0 1 0 0 1 140 381 736 637 1099 1334 1487 1235 997 757 667 801 629 1040 2007 2254 2263 1927 1494 1136 1302 1077 1014 1044 761 660 668 711 720 858 1013 1130 1426 1168 1218 1413 545 238 504
0 4 51 52 15 14 9 0 3 2 191 540 666 771 1061 1400 1356 1291 1183 1168 542 559 475 872 1914 2332 2194 1487 1065 1185 1119 1193 947 845 619 837 658 893 1340 1048 1083 1214 1257 1191 1484 1573 1052 354 546
0 1 46 90 82 37 7 0 38 273 607 887 1018 982 930 1397 1316 1082 1104 1579 1003 445 722 785 1937 2463 1790 1346 1147 978 936 747 601 777 731 649 643 752 1129 1001 912 931 899 1020 1151 1808 1484 1124 795
0 1 0 96 75 25 15 2 38 67 406 722 1051 1066 976 1320 1305 1088 1427 1484 1072 1117 1160 1033 2303 2415 1634 1209 1049 800 900 855 812 809 758 609 805 580 613 825 991 882 738 898 1088 1518 1276 1374 1072
0 1 4 27 115 151 133 70 84 19 7 775 1662 1345 1511 1618 1469 1335 1699 1300 1399 1324 1658 1968 2339 1959 1457 1019 805 721 786 850 841 726 634 498 411 320 196 238 892 991 917 1080 1262 1350 1187 1184 1667
0 5 18 68 140 214 251 257 108 9 17 404 1687 1497 1641 1947 2267 2362 1832 1670 1528 1732 2174 2272 2092 1706 1248 878 709 722 751 837 858 766 577 535 223 5 96 181 557 855 925 1107 1210 1257 959 807 906
1 13 70 143 302 113 278 235 27 100 457 776 1564 1566 1257 1196 2073 2520 2075 1903 1721 1976 2022 2028 1679 967 1128 1028 721 751 805 868 819 623 451 412 83 5 35 57 87 69 249 592 548 334 300 424 490